Weather History for Newberry, MI

Change the Weather History Date:

Wednesday, February 13, 2013

  Actual Average Record
Temperature  
Mean Temperature 26 °F -  
Max Temperature 37 °F 25 °F 46 °F (1984)
Min Temperature 15 °F 7 °F -15 °F (1929)
Degree Days  
Heating Degree Days 39    
Moisture  
Dew Point 22 °F    
Average Humidity 85    
Maximum Humidity 100    
Minimum Humidity 60    
Precipitation  
Precipitation 0.00 in - - ()
Sea Level Pressure  
Sea Level Pressure 29.65 in    
Wind  
Wind Speed 8 mph (SSW)    
Max Wind Speed 12 mph    
Max Gust Speed -    
Visibility 8 miles    
Events      
Averages and records for this station are not official NWS values.
T = Trace of Precipitation, MM = Missing Value Source: NWS Daily Summary

Daily Weather History Graph

Daily Weather History Graph

Search for Another Location

Airport:

Trip Planner

Search our weather history database for the weather conditions in past years. The results will help you decide how hot, cold, wet, or windy it might be!

Date:

Astronomy

Feb. 13, 2013 Rise Set
Actual Time 7:47 AM EST 6:04 PM EST
Civil Twilight 7:16 AM EST 6:36 PM EST
Nautical Twilight 6:41 AM EST 7:11 PM EST
Astronomical Twilight 6:06 AM EST 7:46 PM EST
Moon 9:00 AM EST (2/13) 10:24 PM EST (2/13)
Length of Visible Light 11h 19m
Length of Day
10h 17m
Waxing Crescent, 13% of the Moon is Illuminated
Feb 13
Waxing Crescent
Feb 17
First Quarter
Feb 25
Full
Mar 4
Last Quarter
Mar 11
New

Hourly Weather History & Observations

Time (EST) Temp. Windchill Dew Point Humidity Pressure Visibility Wind Dir Wind Speed Gust Speed Precip Events Conditions
12:14 AM 21.2 °F 9.5 °F 17.6 °F 86% 29.76 in 10.0 mi SSW 11.5 mph - N/A   Overcast
12:34 AM 21.2 °F 10.9 °F 17.6 °F 86% 29.75 in 10.0 mi SSW 9.2 mph - N/A   Mostly Cloudy
12:55 AM 21.2 °F 10.1 °F 17.6 °F 86% 29.75 in 10.0 mi SSW 10.4 mph - N/A   Mostly Cloudy
1:14 AM 21.2 °F 12.6 °F 17.6 °F 86% 29.75 in 10.0 mi SW 6.9 mph - N/A   Overcast
1:35 AM 21.2 °F 11.7 °F 17.6 °F 86% 29.74 in 10.0 mi SSW 8.1 mph - N/A   Overcast
1:55 AM 21.2 °F 11.7 °F 17.6 °F 86% 29.73 in 10.0 mi SW 8.1 mph - N/A   Overcast
2:14 AM 21.2 °F 12.6 °F 17.6 °F 86% 29.73 in 10.0 mi SSW 6.9 mph - N/A   Overcast
2:35 AM 21.2 °F 12.6 °F 17.6 °F 86% 29.72 in 10.0 mi SSW 6.9 mph - N/A   Mostly Cloudy
2:54 AM 19.4 °F 10.4 °F 15.8 °F 86% 29.72 in 10.0 mi SSW 6.9 mph - N/A   Scattered Clouds
3:15 AM 17.6 °F 10.7 °F 15.8 °F 93% 29.71 in 10.0 mi SSW 4.6 mph - N/A   Clear
3:35 AM 17.6 °F 9.3 °F 15.8 °F 93% 29.70 in 10.0 mi South 5.8 mph - N/A   Clear
3:54 AM 17.6 °F 9.3 °F 15.8 °F 93% 29.70 in 10.0 mi SSW 5.8 mph - N/A   Clear
4:15 AM 17.6 °F 9.3 °F 15.8 °F 93% 29.69 in 10.0 mi SSW 5.8 mph - N/A   Clear
4:34 AM 17.6 °F 9.3 °F 15.8 °F 93% 29.69 in 10.0 mi SSW 5.8 mph - N/A   Clear
4:54 AM 17.6 °F 8.2 °F 15.8 °F 93% 29.68 in 10.0 mi South 6.9 mph - N/A   Clear
5:15 AM 17.6 °F 7.3 °F 15.8 °F 93% 29.68 in 10.0 mi SSW 8.1 mph - N/A   Scattered Clouds
5:34 AM 19.4 °F 8.6 °F 17.6 °F 93% 29.67 in 10.0 mi SSW 9.2 mph - N/A   Mostly Cloudy
5:54 AM 19.4 °F 8.6 °F 17.6 °F 93% 29.67 in 10.0 mi SW 9.2 mph - N/A   Overcast
6:15 AM 19.4 °F 8.6 °F 17.6 °F 93% 29.67 in 10.0 mi SW 9.2 mph - N/A   Mostly Cloudy
6:34 AM 19.4 °F 9.5 °F 17.6 °F 93% 29.67 in 7.0 mi SW 8.1 mph - N/A   Mostly Cloudy
6:54 AM 17.6 °F 8.2 °F 15.8 °F 93% 29.66 in 7.0 mi SSW 6.9 mph - N/A   Scattered Clouds
7:15 AM 19.4 °F 9.5 °F 17.6 °F 93% 29.65 in 7.0 mi SSW 8.1 mph - N/A   Scattered Clouds
7:34 AM 17.6 °F 8.2 °F 17.6 °F 100% 29.66 in 7.0 mi WSW 6.9 mph - N/A   Scattered Clouds
7:55 AM 17.6 °F 8.2 °F 15.8 °F 93% 29.66 in 5.0 mi SSW 6.9 mph - N/A   Scattered Clouds
8:15 AM 15.8 °F 6.1 °F 15.8 °F 100% 29.65 in 4.0 mi SW 6.9 mph - N/A   Clear
8:34 AM 17.6 °F 7.3 °F 17.6 °F 100% 29.66 in 4.0 mi SW 8.1 mph - N/A   Scattered Clouds
8:55 AM 21.2 °F 11.7 °F 19.4 °F 93% 29.65 in 5.0 mi SW 8.1 mph - N/A   Mostly Cloudy
9:14 AM 21.2 °F 11.7 °F 19.4 °F 93% 29.65 in 5.0 mi SW 8.1 mph - N/A   Overcast
9:34 AM 21.2 °F 13.6 °F 19.4 °F 93% 29.64 in 5.0 mi SW 5.8 mph - N/A   Overcast
9:55 AM 23.0 °F 17.0 °F 21.2 °F 93% 29.65 in 7.0 mi WSW 4.6 mph - N/A   Mostly Cloudy
10:14 AM 24.8 °F 15.3 °F 21.2 °F 86% 29.64 in 7.0 mi WSW 9.2 mph - N/A   Clear
10:35 AM 26.6 °F 16.8 °F 21.2 °F 80% 29.64 in 10.0 mi WSW 10.4 mph - N/A   Clear
10:54 AM 26.6 °F 17.5 °F 21.2 °F 80% 29.64 in 10.0 mi SW 9.2 mph - N/A   Clear
11:14 AM 26.6 °F 19.1 °F 21.2 °F 80% 29.64 in 10.0 mi WSW 6.9 mph - N/A   Clear
11:35 AM 28.4 °F 19.7 °F 23.0 °F 80% 29.64 in 10.0 mi WSW 9.2 mph - N/A   Clear
11:54 AM 28.4 °F 21.2 °F 23.0 °F 80% 29.64 in 10.0 mi SW 6.9 mph - N/A   Clear
12:14 PM 30.2 °F 23.4 °F 23.0 °F 75% 29.64 in 10.0 mi WSW 6.9 mph - N/A   Clear
12:35 PM 30.2 °F 21.9 °F 23.0 °F 75% 29.64 in 10.0 mi WSW 9.2 mph - N/A   Clear
12:54 PM 32.0 °F 24.2 °F 24.8 °F 75% 29.63 in 10.0 mi WSW 9.2 mph - N/A   Clear
1:15 PM 33.8 °F 27.7 °F 24.8 °F 70% 29.63 in 10.0 mi WSW 6.9 mph - N/A   Clear
1:35 PM 33.8 °F 29.6 °F 24.8 °F 70% 29.62 in 10.0 mi WSW 4.6 mph - N/A   Clear
1:54 PM 35.6 °F - 24.8 °F 65% 29.62 in 10.0 mi Calm Calm - N/A   Clear
2:15 PM 35.6 °F - 24.8 °F 65% 29.62 in 10.0 mi Calm Calm - N/A   Clear
2:34 PM 35.6 °F 30.7 °F 26.6 °F 70% 29.62 in 10.0 mi WSW 5.8 mph - N/A   Clear
2:54 PM 35.6 °F 28.0 °F 24.8 °F 65% 29.61 in 10.0 mi SW 10.4 mph - N/A   Clear
3:15 PM 37.4 °F 32.8 °F 24.8 °F 60% 29.61 in 10.0 mi SW 5.8 mph - N/A   Clear
3:34 PM 37.4 °F 33.8 °F 24.8 °F 60% 29.62 in 10.0 mi SSW 4.6 mph - N/A   Clear
3:54 PM 37.4 °F 31.4 °F 24.8 °F 60% 29.62 in 10.0 mi SSW 8.1 mph - N/A   Clear
4:15 PM 37.4 °F 32.1 °F 24.8 °F 60% 29.62 in 10.0 mi South 6.9 mph - N/A   Clear
4:34 PM 37.4 °F 31.4 °F 26.6 °F 65% 29.62 in 10.0 mi South 8.1 mph - N/A   Clear
4:55 PM 35.6 °F 29.9 °F 26.6 °F 70% 29.62 in 10.0 mi South 6.9 mph - N/A   Clear
5:15 PM 35.6 °F 29.2 °F 26.6 °F 70% 29.62 in 10.0 mi SSE 8.1 mph - N/A   Clear
5:34 PM 33.8 °F 26.4 °F 26.6 °F 75% 29.63 in 10.0 mi South 9.2 mph - N/A   Clear
5:55 PM 32.0 °F 25.6 °F 26.6 °F 80% 29.63 in 10.0 mi South 6.9 mph - N/A   Clear
6:15 PM 30.2 °F 22.6 °F 24.8 °F 80% 29.63 in 10.0 mi South 8.1 mph - N/A   Clear
6:34 PM 28.4 °F 21.2 °F 24.8 °F 86% 29.63 in 10.0 mi South 6.9 mph - N/A   Scattered Clouds
6:55 PM 28.4 °F 19.7 °F 24.8 °F 86% 29.63 in 10.0 mi South 9.2 mph - N/A   Mostly Cloudy
7:14 PM 28.4 °F 19.7 °F 24.8 °F 86% 29.63 in 10.0 mi South 9.2 mph - N/A   Overcast
7:34 PM 28.4 °F 20.4 °F 26.6 °F 93% 29.64 in 7.0 mi SSW 8.1 mph - N/A   Overcast
7:55 PM 28.4 °F 20.4 °F 26.6 °F 93% 29.64 in 7.0 mi South 8.1 mph - N/A   Overcast
8:14 PM 28.4 °F 20.4 °F 26.6 °F 93% 29.64 in 7.0 mi South 8.1 mph - N/A   Overcast
8:34 PM 28.4 °F 20.4 °F 26.6 °F 93% 29.64 in 5.0 mi SSW 8.1 mph - N/A   Overcast
8:54 PM 28.4 °F 20.4 °F 26.6 °F 93% 29.64 in 5.0 mi SSW 8.1 mph - N/A   Overcast
9:14 PM 28.4 °F 19.1 °F 26.6 °F 93% 29.63 in 5.0 mi SSW 10.4 mph - N/A   Overcast
9:35 PM 30.2 °F 21.3 °F 28.4 °F 93% 29.64 in 5.0 mi SSW 10.4 mph - N/A   Overcast
9:54 PM 30.2 °F 21.9 °F 28.4 °F 93% 29.64 in 5.0 mi SSW 9.2 mph - N/A   Overcast
10:14 PM 30.2 °F 22.6 °F 28.4 °F 93% 29.63 in 5.0 mi SSW 8.1 mph - N/A   Overcast
10:35 PM 30.2 °F 23.4 °F 28.4 °F 93% 29.63 in 5.0 mi SSW 6.9 mph - N/A   Mostly Cloudy
10:54 PM 30.2 °F 21.9 °F 28.4 °F 93% 29.63 in 4.0 mi SSW 9.2 mph - N/A   Overcast
11:15 PM 30.2 °F 23.4 °F 28.4 °F 93% 29.62 in 4.0 mi South 6.9 mph - N/A   Overcast
11:35 PM 28.4 °F 23.3 °F 28.4 °F 100% 29.62 in 4.0 mi South 4.6 mph - N/A   Overcast
11:54 PM 28.4 °F - 28.4 °F 100% 29.62 in 3.0 mi Calm Calm - N/A   Mostly Cloudy